STARLINK-1922 (46753 NORAD) Tracking and Keplerian Element Data

This shows tracking and keplerian element data for the satellite.

Feedback or suggestion? Click here.




ElementValue
Catalog46753
NameSTARLINK-1922
Epoch Orbit180
Epoch Day20.91667824
Epoch Year2021
RAAN93.3021
Inclination53.0593
Eccentricity0.0001455
Argument of Perigee66.4451
Mean Anonmoly48.3759
Mean Motion15.06395435
Decay Rate-6.65E-06
L11 46753U 20074Q 21020.91667824 -.00000665 00000-0 -25732-4 0 9998
L22 46753 53.0593 93.3021 0001455 66.4451 48.3759 15.06395435 1807

Live tracking and technical data element details for STARLINK-1922 (NORAD 46753). STARLINK-1922 can be tracked NOW for your location showing map with azimuth and elevation plus other details from your city location.

Track the satellite on the map from your city or location and see movement details for azimuth, elevation, latitude, longitude, range, height, and movement on the map or in text.







IsCatalogInMostPopularTable: catalog: 46753, numindb: 28
Update: records affected: 1



GetName: 46753 STARLINK-1922

Hit Count: updated at: Fri, 22 Jan 2021 18:54:01 GMT